Weather History for KMQE - March, 2013

Change the Weather History Date:

Sunday, March 24, 2013

  Actual Average (KBOS) Record (KBOS)
Temperature  
Mean Temperature 36 °F 40 °F  
Max Temperature 45 °F 48 °F 72 °F (1920)
Min Temperature 28 °F 33 °F 6 °F (1874)
Degree Days  
Heating Degree Days 28 25  
Month to date heating degree days 666  
Since 1 July heating degree days 4708  
Cooling Degree Days 0 0  
Month to date cooling degree days 0  
Year to date cooling degree days 0  
Moisture  
Dew Point 20 °F    
Average Humidity 53    
Maximum Humidity 70    
Minimum Humidity 37    
Precipitation  
Precipitation 0.00 in 0.15 in 1.44 in (1993)
Month to date precipitation 3.31  
Year to date precipitation 9.92  
Sea Level Pressure  
Sea Level Pressure 29.79 in    
Wind  
Wind Speed 12 mph (NW)    
Max Wind Speed 18 mph    
Max Gust Speed 26 mph    
T = Trace of Precipitation, MM = Missing Value Source: NWS Daily Summary

Daily Weather History Graph

Daily Weather History Graph

Search for Another Location

Airport or City:

Trip Planner

Search our weather history database for the weather conditions in past years. The results will help you decide how hot, cold, wet, or windy it might be!

Date:

Astronomy

Mar. 24, 2013 Rise Set
Actual Time 6:40 AM EDT 7:01 PM EDT
Civil Twilight 6:12 AM EDT 7:29 PM EDT
Nautical Twilight 5:39 AM EDT 8:02 PM EDT
Astronomical Twilight 5:05 AM EDT 8:36 PM EDT
Moon 4:24 PM EDT (3/24) 4:51 AM EDT (3/24)
Length of Visible Light 13h 17m
Length of Day
12h 21m
Waxing Gibbous, 91% of the Moon is Illuminated
Mar 24
Waxing Gibbous
Mar 27
Full
Apr 3
Last Quarter
Apr 10
New
Apr 18
First Quarter

Hourly Weather History & Observations

Time (EDT) Temp. Windchill Dew Point Humidity Pressure Visibility Wind Dir Wind Speed Gust Speed Precip Events Conditions
12:54 AM 30.9 °F 19.8 °F 17.1 °F 57% 29.78 in - WNW 16.1 mph 25.3 mph N/A   Unknown
1:54 AM 30.0 °F 17.9 °F 17.1 °F 59% 29.78 in - WNW 18.4 mph 26.5 mph N/A   Unknown
2:54 AM 30.0 °F 19.1 °F 17.1 °F 59% 29.78 in - WNW 15.0 mph 23.0 mph N/A   Unknown
3:54 AM 30.0 °F 19.5 °F 18.0 °F 61% 29.78 in - West 13.8 mph 21.9 mph N/A   Unknown
4:54 AM 28.9 °F 18.6 °F 19.0 °F 67% 29.78 in - WNW 12.7 mph - N/A   Unknown
5:54 AM 28.9 °F 19.8 °F 19.0 °F 67% 29.78 in - WNW 10.4 mph - N/A   Unknown
6:54 AM 28.0 °F 18.6 °F 19.0 °F 69% 29.81 in - WNW 10.4 mph - N/A   Unknown
7:54 AM 30.0 °F 21.7 °F 19.9 °F 66% 29.83 in - West 9.2 mph - N/A   Unknown
8:54 AM 34.0 °F 25.0 °F 19.9 °F 56% 29.81 in - NW 12.7 mph 21.9 mph N/A   Unknown
9:54 AM 37.0 °F 28.1 °F 19.9 °F 50% 29.83 in - NW 15.0 mph 19.6 mph N/A   Unknown
10:54 AM 39.9 °F 31.8 °F 19.9 °F 45% 29.82 in - NW 15.0 mph 19.6 mph N/A   Unknown
11:54 AM 41.0 °F 36.4 °F 19.0 °F 41% 29.82 in - Variable 6.9 mph 17.3 mph N/A   Unknown
12:54 PM 41.0 °F 33.9 °F 19.9 °F 43% 29.81 in - NW 12.7 mph - N/A   Unknown
1:54 PM 43.0 °F 36.0 °F 19.9 °F 40% 29.78 in - NW 13.8 mph 21.9 mph N/A   Unknown
2:54 PM 44.1 °F 38.1 °F 19.9 °F 38% 29.78 in - NW 11.5 mph 20.7 mph N/A   Unknown
3:54 PM 44.1 °F 41.5 °F 19.9 °F 38% 29.75 in - Variable 4.6 mph 16.1 mph N/A   Unknown
4:54 PM 45.0 °F 41.8 °F 19.9 °F 37% 29.75 in - Variable 5.8 mph - N/A   Unknown
5:54 PM 43.0 °F 38.8 °F 19.9 °F 40% 29.76 in - North 6.9 mph - N/A   Unknown
6:54 PM 39.9 °F 35.1 °F 21.0 °F 47% 29.77 in - NE 6.9 mph - N/A   Unknown
7:54 PM 39.0 °F 34.0 °F 21.9 °F 50% 29.78 in - ENE 6.9 mph - N/A   Unknown
8:54 PM 37.9 °F 31.5 °F 21.0 °F 51% 29.78 in - ENE 9.2 mph - N/A   Unknown
9:54 PM 35.1 °F 27.9 °F 26.1 °F 70% 29.81 in - SE 9.2 mph - N/A   Unknown
10:54 PM 35.1 °F 29.3 °F 25.0 °F 67% 29.80 in - South 6.9 mph - N/A   Unknown
11:54 PM 36.0 °F 30.3 °F 24.1 °F 62% 29.78 in - SSW 6.9 mph - N/A   Unknown